logo
Search for airport 
image banner adimage banner adimage banner ad
image banner ad

EHQI - Q4-A (Oil Platform)

Located in , Netherlands

ICAO - , IATA -

Data provided by Airmate  

General information

Coordinates: N52°46'43" E4°16'0"
Elevation is feet MSL.
 
View others Airports in Noord-Holland

Operational data

Special qualification required
Current time UTC:
Current local time:
Weather at : EHKD - Den Helder/De Kooy ( 38 km )
METAR: EHKD 280206Z AUTO 18005KT 9999 SCT012 BKN015 BKN019 11/10 Q1016 GRN
TAF: TAF EHKD 280046Z 2801/2813 22007KT CAVOK TEMPO 2804/2808 FEW010 SCT015
View NOTAMs / SUP AIP / TFR affecting this airport [VIEW]
Communications frequencies: [VIEW]

Runways:

Airport contact information

Address: Netherlands

Satellite view of EHQI